Weather History for Fort Campbell, KY

Change the Weather History Date:

Tuesday, April 16, 2013

  Actual Average Record
Temperature  
Mean Temperature 73 °F -  
Max Temperature 81 °F 68 °F 84 °F (2002)
Min Temperature 66 °F 48 °F 32 °F (2014)
Cooling Degree Days 8    
Growing Degree Days 23 (Base 50)    
Moisture  
Dew Point 67 °F    
Average Humidity 79    
Maximum Humidity 92    
Minimum Humidity 64    
Precipitation  
Precipitation 0.00 in - - ()
Sea Level Pressure  
Sea Level Pressure 30.06 in    
Wind  
Wind Speed 9 mph (South)    
Max Wind Speed 15 mph    
Max Gust Speed 21 mph    
Visibility 10 miles    
Events Rain , Thunderstorm    
Averages and records for this station are not official NWS values.
T = Trace of Precipitation, MM = Missing Value Source: NWS Daily Summary

Daily Weather History Graph

Daily Weather History Graph

Search for Another Location

Airport:

Trip Planner

Search our weather history database for the weather conditions in past years. The results will help you decide how hot, cold, wet, or windy it might be!

Date:

Astronomy

Apr. 16, 2013 Rise Set
Actual Time 6:14 AM CDT 7:25 PM CDT
Civil Twilight 5:47 AM CDT 7:52 PM CDT
Nautical Twilight 5:15 AM CDT 8:24 PM CDT
Astronomical Twilight 4:42 AM CDT 8:57 PM CDT
Moon 10:36 AM CDT (4/16) 12:18 AM CDT (4/16)
Length of Visible Light 14h 04m
Length of Day
13h 11m
Waxing Crescent, 33% of the Moon is Illuminated
Apr 16
Waxing Crescent
Apr 18
First Quarter
Apr 25
Full
May 2
Last Quarter
May 9
New

Hourly Weather History & Observations

Time (CDT) Temp. Heat Index Dew Point Humidity Pressure Visibility Wind Dir Wind Speed Gust Speed Precip Events Conditions
12:55 AM 68.2 °F - 60.6 °F 77% 29.96 in 10.0 mi South 11.5 mph - N/A   Clear
1:55 AM 66.9 °F - 61.7 °F 83% 29.96 in 10.0 mi South 8.1 mph - N/A   Clear
2:55 AM 66.4 °F - 62.4 °F 87% 29.96 in 10.0 mi South 6.9 mph - N/A   Clear
3:55 AM 66.2 °F - 62.8 °F 89% 29.99 in 10.0 mi South 8.1 mph - N/A   Clear
4:29 AM 66.2 °F - 62.6 °F 88% 29.99 in 10.0 mi South 10.4 mph - N/A   Mostly Cloudy
4:32 AM 66.2 °F - 62.6 °F 88% 29.99 in 10.0 mi South 9.2 mph - N/A   Scattered Clouds
4:46 AM 66.2 °F - 62.6 °F 88% 29.99 in 10.0 mi South 11.5 mph - N/A   Mostly Cloudy
4:48 AM 66.2 °F - 62.6 °F 88% 30.00 in 10.0 mi South 11.5 mph - N/A   Mostly Cloudy
4:55 AM 67.1 °F - 63.1 °F 87% 30.00 in 10.0 mi South 10.4 mph - N/A   Mostly Cloudy
5:55 AM 66.9 °F - 63.9 °F 90% 30.04 in 10.0 mi SSW 9.2 mph - N/A   Overcast
6:52 AM 68.0 °F - 64.4 °F 88% 30.06 in 10.0 mi SSE 13.8 mph - N/A   Overcast
6:55 AM 67.8 °F - 64.2 °F 88% 30.06 in 10.0 mi South 12.7 mph - N/A   Overcast
7:10 AM 68.0 °F - 64.4 °F 88% 30.07 in 10.0 mi South 10.4 mph - N/A   Overcast
7:55 AM 69.8 °F - 66.2 °F 88% 30.09 in 10.0 mi South 10.4 mph - N/A   Overcast
8:55 AM 71.1 °F - 66.4 °F 85% 30.09 in 10.0 mi South 10.4 mph - N/A   Mostly Cloudy
9:55 AM 72.1 °F - 67.1 °F 84% 30.09 in 10.0 mi South 11.5 mph - N/A   Overcast
10:32 AM 73.4 °F - 68.0 °F 83% 30.09 in 10.0 mi South 8.1 mph - N/A   Overcast
10:55 AM 75.0 °F - 67.6 °F 78% 30.09 in 10.0 mi South 11.5 mph - N/A   Mostly Cloudy
11:55 AM 74.1 °F - 68.2 °F 82% 30.09 in 10.0 mi South 11.5 mph - N/A   Overcast
12:32 PM 77.0 °F - 68.0 °F 74% 30.08 in 10.0 mi South 12.7 mph 16.1 mph N/A   Scattered Clouds
12:38 PM 77.0 °F - 68.0 °F 74% 30.08 in 10.0 mi SSW 11.5 mph 20.7 mph N/A   Mostly Cloudy
12:47 PM 77.0 °F - 68.0 °F 74% 30.08 in 10.0 mi South 11.5 mph - N/A   Scattered Clouds
12:50 PM 77.0 °F - 68.0 °F 74% 30.08 in 10.0 mi South 11.5 mph - N/A   Mostly Cloudy
12:55 PM 77.0 °F - 68.0 °F 74% 30.08 in 10.0 mi South 10.4 mph - N/A   Mostly Cloudy
1:04 PM 77.0 °F - 68.0 °F 74% 30.08 in 10.0 mi South 11.5 mph - N/A   Mostly Cloudy
1:14 PM 77.0 °F - 68.0 °F 74% 30.07 in 10.0 mi South 10.4 mph - N/A   Mostly Cloudy
1:20 PM 77.0 °F - 68.0 °F 74% 30.07 in 10.0 mi South 8.1 mph - N/A   Mostly Cloudy
1:28 PM 77.0 °F - 68.0 °F 74% 30.07 in 10.0 mi SSW 10.4 mph - N/A   Overcast
1:31 PM 77.0 °F - 68.0 °F 74% 30.07 in 10.0 mi South 10.4 mph - N/A   Mostly Cloudy
1:37 PM 77.0 °F - 68.0 °F 74% 30.07 in 10.0 mi SSW 12.7 mph - N/A   Overcast
1:43 PM 77.0 °F - 68.0 °F 74% 30.07 in 10.0 mi South 8.1 mph - N/A   Overcast
1:45 PM 77.0 °F - 68.0 °F 74% 30.07 in 10.0 mi SSW 10.4 mph - N/A   Overcast
1:50 PM 78.8 °F - 68.0 °F 69% 30.07 in 10.0 mi SSW 12.7 mph - N/A   Overcast
1:55 PM 77.9 °F - 67.6 °F 71% 30.07 in 10.0 mi SSW 11.5 mph - N/A   Overcast
2:55 PM 80.6 °F 83.1 °F 67.5 °F 64% 30.05 in 10.0 mi SSW 15.0 mph - N/A   Partly Cloudy
3:55 PM 79.0 °F - 67.1 °F 67% 30.05 in 10.0 mi SSW 12.7 mph - N/A   Scattered Clouds
4:55 PM 77.5 °F - 67.6 °F 71% 30.05 in 10.0 mi South 5.8 mph - N/A   Clear
5:55 PM 77.9 °F - 67.6 °F 71% 30.03 in 10.0 mi SSE 5.8 mph - N/A   Clear
6:24 PM 77.0 °F - 68.0 °F 74% 30.04 in 10.0 mi SE 4.6 mph - N/A   Light Drizzle
6:35 PM 77.0 °F - 68.0 °F 74% 30.05 in 10.0 mi ESE 4.6 mph - N/A   Clear
6:55 PM 77.2 °F - 68.4 °F 74% 30.06 in 10.0 mi East 5.8 mph - 0.00 in   Partly Cloudy
6:59 PM 77.0 °F - 68.0 °F 74% 30.06 in 10.0 mi East 5.8 mph - N/A Rain Light Rain
7:09 PM 77.0 °F - 68.0 °F 74% 30.06 in 10.0 mi ESE 4.6 mph - N/A   Scattered Clouds
7:10 PM 77.0 °F - 68.0 °F 74% 30.06 in 10.0 mi ESE 4.6 mph - N/A   Light Drizzle
7:18 PM 77.0 °F - 68.0 °F 74% 30.06 in 10.0 mi East 5.8 mph - N/A   Mostly Cloudy
7:50 PM 75.2 °F - 68.0 °F 78% 30.06 in 10.0 mi SE 4.6 mph - N/A Rain Light Rain
7:55 PM 75.7 °F - 68.2 °F 77% 30.06 in 10.0 mi SE 5.8 mph - 0.00 in Rain Light Rain
8:16 PM 75.2 °F - 68.0 °F 78% 30.06 in 10.0 mi SE 4.6 mph - N/A Rain Light Rain
8:25 PM 75.2 °F - 68.0 °F 78% 30.07 in 10.0 mi ESE 5.8 mph - N/A   Scattered Clouds
8:55 PM 75.0 °F - 68.0 °F 79% 30.08 in 10.0 mi SE 4.6 mph - 0.00 in Thunderstorm Mostly Cloudy
9:55 PM 75.0 °F - 68.5 °F 80% 30.09 in 10.0 mi SSE 5.8 mph - N/A   Overcast
10:55 PM 73.8 °F - 68.9 °F 85% 30.08 in 10.0 mi South 4.6 mph - N/A   Clear
11:01 PM 73.4 °F - 69.8 °F 88% 30.08 in 10.0 mi South 5.8 mph - N/A   Light Drizzle
11:05 PM 73.4 °F - 69.8 °F 88% 30.08 in 10.0 mi South 5.8 mph - N/A   Clear
11:55 PM 72.3 °F - 69.8 °F 92% 30.08 in 10.0 mi SSE 5.8 mph - 0.00 in   Clear